• Em Portugal
  • Lista de países
  • Para 7 dias
  • Temperatura da água
  • Mapas de satélite
  • Mapa do tempo
  • Widgets de tempo
  • user-avatar
    Iniciar Sessão

    Previsão horária em Niebylec

    Hoje, 23 Setembro, Domingo

    Tempo Temperatura Precipitação Vento Pressão Humidade
    00:00 +10°C° 0 mm 2 m/s 741 mmHg 76%
    01:00 +10°C° 0 mm 2 m/s 740 mmHg 77%
    02:00 +10°C° 0 mm 2 m/s 740 mmHg 77%
    03:00 +9°C° 0 mm 2 m/s 740 mmHg 78%
    04:00 +9°C° 0 mm 2 m/s 740 mmHg 79%
    05:00 +10°C° 0 mm 3 m/s 740 mmHg 78%
    06:00 +10°C° 0 mm 3 m/s 740 mmHg 77%
    07:00 +11°C° 0 mm 4 m/s 739 mmHg 74%
    08:00 +13°C° 0 mm 4 m/s 739 mmHg 67%
    09:00 +14°C° 0 mm 4 m/s 739 mmHg 60%
    10:00 +16°C° 0 mm 5 m/s 739 mmHg 53%
    11:00 +17°C° 0 mm 4 m/s 739 mmHg 51%
    12:00 +18°C° 0 mm 4 m/s 739 mmHg 50%
    13:00 +18°C° 0 mm 4 m/s 738 mmHg 48%
    14:00 +18°C° 0 mm 4 m/s 738 mmHg 51%
    15:00 +18°C° 0 mm 3 m/s 737 mmHg 54%
    16:00 +18°C° 0 mm 3 m/s 736 mmHg 57%
    17:00 +17°C° 0 mm 4 m/s 735 mmHg 59%
    18:00 +15°C° 0 mm 4 m/s 735 mmHg 61%
    19:00 +15°C° 0 mm 5 m/s 734 mmHg 62%
    20:00 +15°C° 0 mm 7 m/s 732 mmHg 60%
    21:00 +16°C° 0 mm 8 m/s 731 mmHg 58%
    22:00 +16°C° 0 mm 10 m/s 730 mmHg 56%
    23:00 +16°C° 0.9 mm 10 m/s 729 mmHg 62%

    Amanhã, 24 Setembro, Segunda-feira

    Tempo Temperatura Precipitação Vento Pressão Humidade
    00:00 +16°C° 0.9 mm 10 m/s 728 mmHg 67%
    01:00 +14°C° 0.9 mm 10 m/s 727 mmHg 73%
    02:00 +14°C° 2.5 mm 10 m/s 727 mmHg 77%
    03:00 +13°C° 2.5 mm 10 m/s 728 mmHg 82%
    04:00 +13°C° 2.5 mm 9 m/s 728 mmHg 87%
    05:00 +11°C° 0.6 mm 9 m/s 730 mmHg 86%
    06:00 +9°C° 0.6 mm 8 m/s 732 mmHg 86%
    07:00 +7°C° 0.6 mm 8 m/s 733 mmHg 85%
    08:00 +7°C° 0.2 mm 8 m/s 734 mmHg 84%
    09:00 +7°C° 0.2 mm 8 m/s 736 mmHg 82%
    10:00 +9°C° 0.2 mm 8 m/s 737 mmHg 81%
    11:00 +9°C° 0.3 mm 8 m/s 737 mmHg 77%
    12:00 +9°C° 0.3 mm 8 m/s 738 mmHg 73%
    13:00 +10°C° 0.3 mm 9 m/s 738 mmHg 69%
    14:00 +10°C° 0.1 mm 9 m/s 739 mmHg 66%
    15:00 +9°C° 0.1 mm 8 m/s 739 mmHg 64%
    16:00 +9°C° 0.1 mm 8 m/s 739 mmHg 61%
    17:00 +8°C° 0.1 mm 7 m/s 740 mmHg 64%
    18:00 +7°C° 0.1 mm 6 m/s 740 mmHg 68%
    19:00 +6°C° 0.1 mm 5 m/s 741 mmHg 71%
    20:00 +5°C° 0 mm 6 m/s 741 mmHg 69%
    21:00 +5°C° 0 mm 6 m/s 741 mmHg 68%
    22:00 +5°C° 0 mm 6 m/s 741 mmHg 66%
    23:00 +5°C° 0.4 mm 6 m/s 742 mmHg 73%

    Depois de amanhã, 25 Setembro, Terça-feira

    Tempo Temperatura Precipitação Vento Pressão Humidade
    00:00 +5°C° 0.4 mm 6 m/s 742 mmHg 80%
    01:00 +5°C° 0.4 mm 6 m/s 743 mmHg 87%
    02:00 +4°C° 0.1 mm 6 m/s 743 mmHg 88%
    03:00 +5°C° 0.1 mm 5 m/s 744 mmHg 89%
    04:00 +5°C° 0.1 mm 5 m/s 744 mmHg 90%
    05:00 +5°C° 0 mm 5 m/s 745 mmHg 89%
    06:00 +5°C° 0 mm 5 m/s 746 mmHg 88%
    07:00 +5°C° 0 mm 5 m/s 747 mmHg 86%
    08:00 +5°C° 0.2 mm 6 m/s 747 mmHg 79%
    09:00 +8°C° 0.2 mm 6 m/s 748 mmHg 71%
    10:00 +9°C° 0.2 mm 6 m/s 748 mmHg 63%
    11:00 +9°C° 0.2 mm 6 m/s 748 mmHg 60%
    12:00 +10°C° 0.2 mm 7 m/s 748 mmHg 56%
    13:00 +10°C° 0.2 mm 7 m/s 748 mmHg 53%
    14:00 +10°C° 0 mm 6 m/s 748 mmHg 54%
    15:00 +9°C° 0 mm 5 m/s 749 mmHg 55%
    16:00 +10°C° 0 mm 4 m/s 749 mmHg 55%
    17:00 +8°C° 0 mm 4 m/s 749 mmHg 60%
    18:00 +7°C° 0 mm 3 m/s 750 mmHg 65%
    19:00 +6°C° 0 mm 2 m/s 750 mmHg 71%
    20:00 +5°C° 0 mm 2 m/s 751 mmHg 73%
    21:00 +5°C° 0 mm 2 m/s 751 mmHg 75%
    22:00 +4°C° 0 mm 2 m/s 751 mmHg 77%
    23:00 +4°C° 0 mm 2 m/s 752 mmHg 78%

    26 Setembro, Quarta-feira

    Tempo Temperatura Precipitação Vento Pressão Humidade
    00:00 +4°C° 0 mm 2 m/s 752 mmHg 80%
    01:00 +4°C° 0 mm 1 m/s 752 mmHg 82%
    02:00 +4°C° 0 mm 1 m/s 752 mmHg 83%
    03:00 +4°C° 0 mm 1 m/s 752 mmHg 84%
    04:00 +3°C° 0 mm 1 m/s 752 mmHg 85%
    05:00 +4°C° 0 mm 1 m/s 753 mmHg 83%
    06:00 +5°C° 0 mm 1 m/s 753 mmHg 80%
    07:00 +6°C° 0 mm 1 m/s 753 mmHg 78%
    08:00 +7°C° 0 mm 2 m/s 753 mmHg 68%
    09:00 +9°C° 0 mm 2 m/s 753 mmHg 58%
    10:00 +12°C° 0 mm 2 m/s 753 mmHg 49%
    11:00 +13°C° 0 mm 2 m/s 752 mmHg 46%
    12:00 +13°C° 0 mm 2 m/s 752 mmHg 42%
    13:00 +14°C° 0 mm 2 m/s 751 mmHg 39%
    14:00 +14°C° 0 mm 2 m/s 750 mmHg 43%
    15:00 +14°C° 0 mm 2 m/s 750 mmHg 46%
    16:00 +14°C° 0 mm 2 m/s 749 mmHg 50%
    17:00 +12°C° 0 mm 2 m/s 749 mmHg 53%
    18:00 +10°C° 0 mm 2 m/s 749 mmHg 56%
    19:00 +8°C° 0 mm 3 m/s 749 mmHg 60%
    20:00 +8°C° 0 mm 3 m/s 749 mmHg 60%
    21:00 +8°C° 0 mm 3 m/s 748 mmHg 61%
    22:00 +9°C° 0 mm 3 m/s 748 mmHg 61%
    23:00 +8°C° 0 mm 4 m/s 748 mmHg 62%

    27 Setembro, Quinta-feira

    Tempo Temperatura Precipitação Vento Pressão Humidade
    00:00 +8°C° 0 mm 4 m/s 748 mmHg 62%
    01:00 +8°C° 0 mm 4 m/s 748 mmHg 62%
    02:00 +8°C° 0 mm 4 m/s 747 mmHg 62%
    03:00 +7°C° 0 mm 4 m/s 747 mmHg 62%
    04:00 +7°C° 0 mm 5 m/s 746 mmHg 63%
    05:00 +8°C° 0 mm 4 m/s 746 mmHg 62%
    06:00 +8°C° 0 mm 4 m/s 746 mmHg 61%
    07:00 +8°C° 0 mm 4 m/s 746 mmHg 60%
    08:00 +9°C° 0 mm 5 m/s 746 mmHg 57%
    09:00 +10°C° 0 mm 5 m/s 746 mmHg 55%
    10:00 +13°C° 0 mm 5 m/s 746 mmHg 52%
    11:00 +13°C° 0 mm 5 m/s 746 mmHg 54%
    12:00 +14°C° 0 mm 4 m/s 745 mmHg 56%
    13:00 +15°C° 0 mm 4 m/s 745 mmHg 58%
    14:00 +15°C° 0 mm 4 m/s 745 mmHg 60%
    15:00 +16°C° 0 mm 3 m/s 744 mmHg 61%
    16:00 +17°C° 0 mm 3 m/s 744 mmHg 62%
    17:00 +16°C° 0 mm 3 m/s 744 mmHg 64%
    18:00 +13°C° 0 mm 3 m/s 744 mmHg 66%
    19:00 +12°C° 0 mm 3 m/s 744 mmHg 68%
    20:00 +12°C° 0 mm 3 m/s 744 mmHg 68%
    21:00 +12°C° 0 mm 3 m/s 744 mmHg 69%
    22:00 +12°C° 0 mm 3 m/s 744 mmHg 69%
    23:00 +11°C° 0 mm 3 m/s 744 mmHg 70%

    28 Setembro, Sexta-feira

    Tempo Temperatura Precipitação Vento Pressão Humidade
    00:00 +11°C° 0 mm 3 m/s 743 mmHg 71%
    01:00 +10°C° 0 mm 3 m/s 743 mmHg 72%
    02:00 +10°C° 0 mm 3 m/s 743 mmHg 72%
    03:00 +10°C° 0 mm 3 m/s 742 mmHg 72%
    04:00 +10°C° 0 mm 3 m/s 742 mmHg 72%
    05:00 +10°C° 0 mm 3 m/s 742 mmHg 70%
    06:00 +11°C° 0 mm 3 m/s 742 mmHg 69%
    07:00 +11°C° 0 mm 3 m/s 741 mmHg 67%
    08:00 +14°C° 0 mm 3 m/s 741 mmHg 63%
    09:00 +17°C° 0 mm 3 m/s 741 mmHg 59%
    10:00 +19°C° 0 mm 3 m/s 741 mmHg 54%
    11:00 +20°C° 0 mm 3 m/s 741 mmHg 53%
    12:00 +21°C° 0 mm 3 m/s 740 mmHg 51%
    13:00 +22°C° 0 mm 3 m/s 740 mmHg 49%
    14:00 +22°C° 0 mm 3 m/s 740 mmHg 52%
    15:00 +21°C° 0 mm 2 m/s 740 mmHg 55%
    16:00 +20°C° 0 mm 2 m/s 739 mmHg 58%
    17:00 +19°C° 0 mm 2 m/s 740 mmHg 61%
    18:00 +17°C° 0 mm 2 m/s 740 mmHg 64%
    19:00 +15°C° 0 mm 2 m/s 740 mmHg 67%
    20:00 +15°C° 0 mm 2 m/s 740 mmHg 70%
    21:00 +14°C° 0 mm 1 m/s 740 mmHg 72%
    22:00 +14°C° 0 mm 1 m/s 740 mmHg 74%
    23:00 +13°C° 0 mm 1 m/s 740 mmHg 77%
    Mostrar mais